EW0310 Weather Reports


time (UTC)temp
C
wind
direction
speed
KPH
gust
KPH
rain 1hr
cm
rain 24hr
cm
rain mn
cm
humidity
%
barometer
mb
20260509162004 10 194 4.8 19.3 0.13 0.76 0.74 93 1010.0
20260509161504 10 192 9.7 16.1 0.10 0.74 0.71 93 1009.9
20260509161003 10 204 4.8 12.9 0.10 0.74 0.71 93 1009.9
20260509160504 10 180 4.8 22.5 0.10 0.74 0.71 93 1009.8
20260509160004 10 216 3.2 9.7 0.10 0.71 0.69 93 1009.8
20260509155004 10 167 9.7 27.4 0.15 0.71 0.69 93 1009.9
20260509154504 10 148 4.8 16.1 0.13 0.69 0.66 93 1009.8
20260509154003 10 238 8.0 16.1 0.18 0.69 0.66 92 1009.9
20260509153504 10 175 4.8 19.3 0.20 0.69 0.66 92 1010.0
20260509153004 10 182 4.8 19.3 0.20 0.66 0.64 92 1010.0
20260509152503 10 237 8.0 20.9 0.20 0.66 0.64 92 1010.0
20260509152004 10 183 6.4 19.3 0.20 0.64 0.61 92 1010.0
20260509151503 10 201 4.8 11.3 0.20 0.64 0.61 92 1010.0
20260509151003 10 159 4.8 9.7 0.20 0.64 0.61 92 1010.0
20260509150504 10 207 3.2 14.5 0.20 0.64 0.61 92 1010.1
20260509150004 10 239 1.6 19.3 0.20 0.61 0.58 92 1010.2
20260509145504 10 197 3.2 16.1 0.18 0.58 0.56 92 1010.1
20260509145004 10 196 3.2 14.5 0.18 0.56 0.53 92 1010.2
20260509144004 10 213 6.4 24.1 0.15 0.51 0.48 92 1010.3
20260509143504 10 200 6.4 19.3 0.13 0.48 0.46 92 1010.2
20260509143004 10 214 11.3 20.9 0.10 0.46 0.43 92 1010.3
20260509142504 10 184 4.8 16.1 0.13 0.46 0.43 92 1010.1
20260509142003 10 174 4.8 20.9 0.10 0.43 0.41 92 1010.2
20260509141503 10 202 4.8 20.9 0.13 0.43 0.41 92 1010.2
20260509141003 10 231 4.8 20.9 0.13 0.43 0.41 92 1010.3
20260509140504 10 262 4.8 14.5 0.15 0.43 0.41 92 1010.2
20260509140004 10 187 4.8 16.1 0.13 0.41 0.38 92 1010.1
20260509135504 10 209 11.3 20.9 0.13 0.41 0.38 92 1010.3
20260509135004 10 268 8.0 16.1 0.13 0.38 0.36 92 1010.2
20260509134504 10 215 6.4 16.1 0.10 0.36 0.33 92 1010.2
20260509134004 10 208 8.0 20.9 0.10 0.36 0.33 92 1010.2
20260509133504 10 202 3.2 19.3 0.13 0.36 0.33 92 1010.3
20260509133004 10 157 3.2 11.3 0.13 0.36 0.33 92 1010.3
20260509132504 10 228 4.8 16.1 0.13 0.33 0.30 92 1010.4
20260509131504 9 236 1.6 9.7 0.10 0.30 0.28 92 1010.4
20260509131004 9 196 3.2 16.1 0.10 0.30 0.28 92 1010.4
20260509130504 9 266 3.2 12.9 0.08 0.28 0.25 92 1010.5
20260509130003 9 253 3.2 8.0 0.08 0.28 0.25 92 1010.5
20260509125004 9 142 3.2 12.9 0.08 0.25 0.23 92 1010.6
20260509124504 9 221 4.8 19.3 0.10 0.25 0.23 92 1010.5
20260509124003 9 236 4.8 14.5 0.10 0.25 0.23 92 1010.5
20260509123504 9 246 6.4 27.4 0.08 0.23 0.20 92 1010.4
20260509123003 9 256 3.2 11.3 0.10 0.23 0.20 92 1010.5
20260509122504 9 223 8.0 19.3 0.08 0.20 0.18 92 1010.5
20260509122003 9 240 4.8 19.3 0.08 0.20 0.18 92 1010.5
20260509121504 9 242 8.0 20.9 0.08 0.20 0.18 92 1010.5
20260509120003 9 240 3.2 14.5 0.08 0.20 0.18 91 1010.6
20260509115503 9 228 3.2 16.1 0.05 0.18 0.15 91 1010.5
20260509115003 9 208 1.6 19.3 0.05 0.18 0.15 91 1010.5
20260509114504 8 221 8.0 22.5 0.03 0.15 0.13 91 1010.5
20260509114003 8 189 4.8 14.5 0.05 0.15 0.13 91 1010.6
20260509113503 8 198 8.0 20.9 0.05 0.15 0.13 91 1010.5
20260509113004 8 206 4.8 19.3 0.03 0.13 0.10 90 1010.7
20260509112504 8 229 3.2 11.3 0.03 0.13 0.10 90 1010.7
20260509112003 8 188 3.2 12.9 0.03 0.13 0.10 90 1010.6
20260509111504 8 203 4.8 19.3 0.03 0.13 0.10 90 1010.6
20260509111003 8 210 4.8 16.1 0.05 0.13 0.10 91 1010.6
20260509110504 8 196 6.4 19.3 0.05 0.13 0.10 91 1010.6
20260509110003 8 200 3.2 11.3 0.05 0.13 0.10 91 1010.6
20260509105503 8 160 6.4 14.5 0.05 0.13 0.10 91 1010.7
20260509105003 8 225 4.8 19.3 0.08 0.13 0.10 90 1010.6
20260509104503 8 243 4.8 25.7 0.08 0.13 0.10 90 1010.7
20260509104004 8 188 4.8 16.1 0.05 0.10 0.08 90 1010.7
20260509103504 8 190 4.8 16.1 0.05 0.10 0.08 90 1010.8
20260509103003 8 198 3.2 16.1 0.05 0.10 0.08 90 1010.6
20260509102504 8 225 8.0 14.5 0.05 0.10 0.08 89 1010.7
20260509102004 8 159 6.4 22.5 0.08 0.10 0.08 89 1010.8
20260509101504 8 254 8.0 19.3 0.08 0.10 0.08 88 1010.9
20260509101003 9 241 4.8 16.1 0.05 0.08 0.05 87 1011.0
20260509100504 9 250 3.2 14.5 0.05 0.08 0.05 87 1011.0
20260509100004 9 275 3.2 14.5 0.05 0.08 0.05 86 1011.0
20260509094503 9 242 3.2 20.9 0.03 0.05 0.03 84 1010.9
20260509093503 9 236 4.8 19.3 0.03 0.05 0.03 83 1011.0
20260509093003 9 211 4.8 16.1 0.03 0.05 0.03 82 1010.9
20260509092504 9 235 3.2 14.5 0.03 0.05 0.03 82 1010.8
20260509092004 9 232 4.8 19.3 0.00 0.03 0.00 83 1010.8
20260509091503 9 197 3.2 19.3 0.00 0.03 0.00 84 1010.8
20260509091004 8 198 4.8 19.3 0.00 0.03 0.00 85 1010.5
20260509090504 8 187 1.6 20.9 0.00 0.03 0.00 86 1010.5
20260509090004 8 236 3.2 9.7 0.00 0.03 0.00 87 1010.4
20260509085004 8 278 4.8 12.9 0.00 0.03 0.00 88 1010.2
20260509084503 8 167 4.8 14.5 0.00 0.03 0.00 88 1010.3
20260509084004 8 278 1.6 11.3 0.00 0.03 0.00 89 1010.1
20260509083503 8 170 3.2 9.7 0.00 0.03 0.00 89 1010.2
20260509083004 8 201 0.0 3.2 0.00 0.03 0.00 89 1010.1
20260509082004 8 176 1.6 8.0 0.00 0.03 0.00 88 1010.1
20260509081503 8 165 1.6 8.0 0.00 0.03 0.00 89 1010.1
20260509081004 8 168 4.8 9.7 0.00 0.03 0.00 89 1010.1
20260509080504 8 148 3.2 8.0 0.00 0.03 0.00 89 1010.1
20260509075504 8 151 4.8 8.0 0.00 0.03 0.00 89 1009.9
20260509074503 8 156 4.8 9.7 0.00 0.03 0.00 89 1010.0
20260509074004 8 152 4.8 9.7 0.00 0.03 0.00 90 1009.9
20260509073504 8 160 4.8 14.5 0.00 0.03 0.00 90 1009.9
20260509073003 8 140 4.8 11.3 0.00 0.03 0.00 90 1010.1
20260509072504 8 140 4.8 8.0 0.00 0.03 0.00 90 1010.1
20260509072004 7 136 3.2 9.7 0.00 0.03 0.00 90 1010.1
20260509071004 7 135 4.8 12.9 0.00 0.03 0.00 90 1010.0
20260509070003 7 123 3.2 8.0 0.00 0.03 0.00 90 1010.3
20260509065503 7 136 3.2 8.0 0.00 0.03 0.00 90 1010.4
20260509065004 7 142 3.2 4.8 0.00 0.03 0.00 90 1010.5
20260509064503 7 157 0.0 1.6 0.00 0.03 0.00 90 1010.6
20260509064004 7 157 1.6 3.2 0.00 0.03 0.00 90 1010.8
20260509063503 7 160 3.2 4.8 0.00 0.03 0.00 90 1010.9
20260509062504 7 160 1.6 4.8 0.00 0.03 0.00 91 1011.2
20260509062004 7 166 4.8 11.3 0.00 0.03 0.00 91 1011.1
20260509061003 7 134 4.8 8.0 0.00 0.03 0.00 91 1011.2
20260509060503 7 130 4.8 9.7 0.00 0.03 0.00 91 1011.2
20260509060003 7 136 4.8 8.0 0.00 0.03 0.00 91 1011.3
20260509055503 7 132 3.2 11.3 0.00 0.03 0.00 91 1011.4
20260509055003 7 134 1.6 4.8 0.00 0.03 0.00 91 1011.6
20260509054504 7 117 3.2 4.8 0.00 0.03 0.00 91 1011.6
20260509054003 7 122 3.2 11.3 0.00 0.03 0.00 91 1011.7
20260509053503 8 138 4.8 8.0 0.00 0.03 0.00 91 1011.8
20260509053003 8 131 4.8 12.9 0.00 0.03 0.00 91 1011.8
20260509052504 8 139 4.8 11.3 0.00 0.03 0.00 91 1011.8
20260509052003 8 140 4.8 9.7 0.00 0.03 0.00 90 1011.8
20260509051504 8 128 3.2 4.8 0.00 0.03 0.00 90 1011.8
20260509051003 8 122 3.2 4.8 0.00 0.03 0.00 90 1011.8
20260509050504 8 127 3.2 8.0 0.00 0.03 0.00 90 1011.9
20260509050003 8 135 3.2 9.7 0.00 0.03 0.00 90 1011.9
20260509045504 8 115 4.8 9.7 0.00 0.03 0.00 90 1011.9
20260509045004 8 112 3.2 9.7 0.00 0.03 0.00 90 1012.0
20260509044003 8 100 3.2 4.8 0.00 0.03 0.00 90 1012.1
20260509043504 8 106 1.6 4.8 0.00 0.03 0.00 90 1012.1
20260509043003 8 120 3.2 4.8 0.00 0.03 0.00 90 1012.2
20260509042504 8 118 3.2 4.8 0.00 0.03 0.00 90 1012.4
20260509042005 8 103 1.6 3.2 0.00 0.03 0.00 90 1012.4
20260509041504 8 101 1.6 4.8 0.00 0.03 0.00 90 1012.6
20260509041003 8 51 1.6 3.2 0.00 0.03 0.00 90 1012.6
20260509040504 8 341 1.6 3.2 0.00 0.03 0.00 89 1012.7
20260509040003 8 340 1.6 3.2 0.00 0.03 0.00 89 1012.7
20260509035504 8 338 0.0 1.6 0.00 0.03 0.03 89 1012.6
20260509035003 8 338 1.6 4.8 0.00 0.03 0.03 89 1012.6
20260509034504 8 338 0.0 4.8 0.00 0.03 0.03 89 1012.6
20260509034004 8 339 4.8 8.0 0.00 0.03 0.03 88 1012.5
20260509033004 8 345 0.0 4.8 0.00 0.03 0.03 87 1012.4
20260509032504 8 0 1.6 4.8 0.00 0.03 0.03 87 1012.4
20260509032003 8 328 3.2 8.0 0.00 0.03 0.03 86 1012.5
20260509031503 8 0 3.2 4.8 0.00 0.03 0.03 86 1012.5
20260509031004 8 342 3.2 4.8 0.00 0.03 0.03 85 1012.5
20260509030004 8 315 1.6 4.8 0.00 0.03 0.03 86 1012.4
20260509025503 9 167 0.0 1.6 0.00 0.03 0.03 86 1012.4
20260509025003 9 167 0.0 0.0 0.00 0.03 0.03 86 1012.5
20260509024004 9 167 0.0 0.0 0.00 0.03 0.03 85 1012.5
20260509023504 9 167 3.2 4.8 0.00 0.03 0.03 85 1012.4
20260509023004 9 146 1.6 4.8 0.00 0.03 0.03 85 1012.1
20260509022503 9 146 0.0 3.2 0.00 0.03 0.03 85 1012.1
20260509022004 9 146 0.0 1.6 0.00 0.03 0.03 84 1012.1
20260509021503 9 146 1.6 4.8 0.00 0.03 0.03 84 1012.1
20260509021004 9 135 3.2 8.0 0.00 0.03 0.03 84 1012.0
20260509020504 9 153 4.8 11.3 0.00 0.03 0.03 84 1012.0
20260509015503 8 144 4.8 11.3 0.00 0.03 0.03 85 1011.9
20260509015004 8 143 4.8 9.7 0.00 0.03 0.03 85 1011.9
20260509014503 8 138 4.8 11.3 0.00 0.03 0.03 86 1011.9
20260509014004 8 133 8.0 12.9 0.00 0.03 0.03 86 1011.9
20260509013504 8 129 6.4 12.9 0.00 0.03 0.03 85 1012.0
20260509012504 8 178 3.2 4.8 0.00 0.03 0.03 85 1012.2
20260509012004 9 184 0.0 0.0 0.00 0.03 0.03 84 1012.1
20260509011504 9 184 0.0 0.0 0.00 0.03 0.03 84 1012.1
20260509011004 9 184 0.0 0.0 0.00 0.03 0.03 84 1012.0
20260509010004 9 184 0.0 1.6 0.00 0.03 0.03 84 1012.2
20260509005004 9 184 0.0 0.0 0.00 0.03 0.03 82 1012.1
20260509004503 9 184 0.0 1.6 0.00 0.03 0.03 81 1012.1
20260509004004 9 184 0.0 1.6 0.00 0.03 0.03 82 1012.0
20260509003504 9 184 0.0 0.0 0.00 0.03 0.03 79 1012.0
20260509003004 9 184 0.0 0.0 0.00 0.03 0.03 80 1011.8
20260509002004 10 184 0.0 0.0 0.00 0.03 0.03 79 1011.7
20260509001504 10 184 0.0 0.0 0.00 0.03 0.03 78 1011.7
20260509001004 10 184 0.0 0.0 0.00 0.03 0.03 77 1011.7
20260509000503 10 184 0.0 0.0 0.00 0.03 0.03 76 1011.7
20260508235503 10 184 0.0 0.0 0.00 0.03 0.03 76 1011.6
20260508235004 10 184 1.6 4.8 0.00 0.03 0.03 77 1011.7
20260508234503 10 225 1.6 4.8 0.00 0.03 0.03 77 1011.9
20260508234004 10 293 0.0 1.6 0.00 0.03 0.03 76 1011.9
20260508233503 10 293 0.0 1.6 0.00 0.03 0.03 77 1011.9
20260508233004 11 293 0.0 3.2 0.00 0.03 0.03 76 1011.9
20260508232503 11 293 0.0 1.6 0.00 0.03 0.03 76 1011.9
20260508232004 11 293 0.0 1.6 0.00 0.03 0.03 74 1011.9
20260508231504 11 294 0.0 3.2 0.00 0.03 0.03 73 1011.9
20260508231004 11 293 1.6 4.8 0.00 0.03 0.03 72 1011.9
20260508230503 11 280 0.0 4.8 0.00 0.03 0.03 72 1011.9
20260508230004 11 308 1.6 4.8 0.00 0.03 0.03 72 1011.9
20260508225503 11 307 3.2 4.8 0.00 0.03 0.03 72 1011.8
20260508225004 11 300 1.6 9.7 0.00 0.03 0.03 71 1011.8
20260508224004 11 241 1.6 4.8 0.00 0.03 0.03 72 1011.8
20260508223504 11 251 1.6 11.3 0.00 0.03 0.03 72 1011.8
20260508223003 11 243 1.6 8.0 0.00 0.03 0.03 72 1011.8
20260508222504 11 248 3.2 4.8 0.00 0.03 0.03 71 1011.8
20260508222003 11 252 0.0 8.0 0.00 0.03 0.03 72 1011.7
20260508221504 11 217 1.6 4.8 0.00 0.03 0.03 72 1011.7
20260508221003 11 231 3.2 9.7 0.00 0.03 0.03 72 1011.7
20260508220503 11 228 3.2 9.7 0.00 0.03 0.03 71 1011.8
20260508220004 11 300 3.2 9.7 0.00 0.03 0.03 73 1011.8
20260508215503 11 202 6.4 16.1 0.00 0.03 0.03 73 1011.8
20260508215004 11 269 1.6 9.7 0.00 0.03 0.03 74 1011.9
20260508214503 11 251 1.6 11.3 0.00 0.03 0.03 74 1011.9
20260508214003 11 212 3.2 9.7 0.00 0.03 0.03 73 1012.0
20260508213503 11 260 1.6 9.7 0.00 0.03 0.03 74 1012.0
20260508213004 11 287 3.2 14.5 0.00 0.03 0.03 72 1012.0
20260508212503 11 292 4.8 16.1 0.00 0.03 0.03 72 1012.1
20260508212004 11 235 3.2 19.3 0.00 0.03 0.03 73 1012.0
20260508211004 11 229 4.8 14.5 0.00 0.03 0.03 71 1012.2
20260508210504 11 256 1.6 14.5 0.00 0.03 0.03 72 1012.1
20260508205504 11 264 6.4 19.3 0.00 0.03 0.03 70 1012.1
20260508205004 11 276 4.8 14.5 0.00 0.03 0.03 71 1012.4
20260508204503 11 231 3.2 14.5 0.00 0.03 0.03 70 1012.3
20260508204003 11 256 8.0 27.4 0.00 0.03 0.03 68 1012.3
20260508203503 12 277 8.0 20.9 0.00 0.03 0.03 68 1012.1
20260508203005 12 262 4.8 19.3 0.00 0.03 0.03 67 1012.1
20260508202503 12 245 8.0 24.1 0.00 0.03 0.03 67 1012.1
20260508202003 12 252 8.0 25.7 0.00 0.03 0.03 66 1012.2
20260508201503 12 272 8.0 29.0 0.00 0.03 0.03 65 1012.1
20260508200504 12 187 3.2 16.1 0.00 0.03 0.03 67 1012.0
20260508200004 12 228 4.8 22.5 0.00 0.03 0.03 67 1012.2
20260508194504 11 231 4.8 19.3 0.03 0.03 0.03 69 1012.4
20260508194004 11 308 4.8 16.1 0.03 0.03 0.03 69 1012.4
20260508193504 11 281 3.2 20.9 0.03 0.03 0.03 69 1012.6
20260508193004 11 219 6.4 19.3 0.03 0.03 0.03 70 1012.6
20260508192504 11 291 6.4 19.3 0.03 0.03 0.03 69 1012.6
20260508192004 11 275 4.8 19.3 0.03 0.03 0.03 70 1012.6
20260508191504 11 261 4.8 16.1 0.03 0.03 0.03 70 1012.6
20260508191003 12 273 6.4 14.5 0.03 0.03 0.03 69 1012.5
20260508190504 12 275 4.8 19.3 0.03 0.03 0.03 66 1012.5
20260508190004 13 268 9.7 29.0 0.03 0.03 0.03 64 1012.4
20260508185503 13 248 3.2 22.5 0.00 0.00 0.00 59 1012.3
20260508185003 13 283 8.0 29.0 0.00 0.00 0.00 57 1012.2
20260508184504 13 276 6.4 22.5 0.00 0.00 0.00 58 1012.2
20260508184004 13 251 8.0 19.3 0.00 0.00 0.00 57 1012.2
20260508183503 13 242 8.0 19.3 0.00 0.00 0.00 60 1012.3
20260508183003 12 279 6.4 19.3 0.00 0.00 0.00 60 1012.4
20260508182504 12 280 8.0 22.5 0.00 0.00 0.00 61 1012.5
20260508182003 12 253 1.6 20.9 0.00 0.00 0.00 62 1012.4
20260508181504 12 272 4.8 25.7 0.00 0.00 0.00 61 1012.5
20260508180504 12 237 4.8 22.5 0.00 0.00 0.00 60 1012.5
20260508180004 13 242 11.3 29.0 0.00 0.00 0.00 55 1012.4
20260508175504 13 178 4.8 14.5 0.00 0.00 0.00 53 1012.6
20260508175003 13 243 4.8 19.3 0.00 0.00 0.00 50 1012.5
20260508174504 13 218 6.4 22.5 0.00 0.00 0.00 50 1012.3
20260508174004 14 253 4.8 16.1 0.00 0.00 0.00 52 1012.4
20260508173504 14 316 4.8 16.1 0.00 0.00 0.00 53 1012.5
20260508172503 14 293 4.8 22.5 0.00 0.00 0.00 52 1012.6
20260508172004 14 255 9.7 24.1 0.00 0.00 0.00 53 1012.7
20260508171503 14 273 6.4 16.1 0.00 0.00 0.00 49 1012.7
20260508170504 14 239 8.0 20.9 0.00 0.00 0.00 52 1012.8
20260508170004 14 282 11.3 32.2 0.00 0.00 0.00 50 1012.8
20260508165504 14 264 9.7 22.5 0.00 0.00 0.00 50 1012.7
20260508164504 14 250 8.0 19.3 0.00 0.00 0.00 50 1012.8
20260508163003 13 297 4.8 19.3 0.00 0.00 0.00 51 1013.1
20260508162503 13 303 8.0 20.9 0.00 0.00 0.00 52 1013.0